Terug naar catalogus

SL-8 R/B

ActiefPO
NORAD 7350·ROCKET BODY·🇷🇺 Russia

Gelanceerd Jun 27, 1974 vanaf Plesetsk Cosmodrome

Loading…

Volgende Passages (komende 24 uur)

TLE

VersSource: Space-Track

Epoch: Sep 14, 2026, 22:12 UTC

1 07350U 74048B   26257.92524281  .00000147  00000-0  13094-3 0  9995
2 07350  82.9432  50.9815 0016310 201.7961 325.1786 13.78045990624639

Volg SL-8 R/B in realtime met AllMySat

Download on the App Store